Location: New Plymouth
(39.0670°S, 174.0830°E)
Time: 02:57:07
(UTC+12:00)

SeaSat 1 - Pass Details

Date: 24 January 2019
Orbit: 745 x 747 km, 108.0° (Epoch: 19 April)

Event Time Altitude Azimuth Distance (km) Brightness Sun altitude
Rises 23:37:02 0° 154° (SSE) 3,225 6.2 -25.4°
Reaches altitude 10° 23:39:20 10° 152° (SSE) 2,293 5.3 -25.7°
Enters shadow 23:44:02 76° 109° (ESE) 782 2.4 -26.1°
